Regional Weather Roundup
Issued by NWS

Home | Current Version | Previous Version | Text Only | Print | Product List | Glossary Off
Versions: 1 2 3 4 5 6 7 8 9 10 11 12 13 14 15 16 17 18 19 20 21 22 23 24 25 26 27 28 29 30 31 32 33 34 35 36 37 38 39 40 41 42 43 44 45 46 47 48 49 50

000
ASUS44 KMEG 201010
RWRTN
TENNESSEE HOURLY STATE WEATHER ROUNDUP
NATIONAL WEATHER SERVICE MEMPHIS TN
500 AM CDT FRI OCT 20 2017

TNZ002-004-019-021-049-052-054-088>092-201100-
WEST TENNESSEE

CITY           SKY/WX    TMP DP  RH WIND       PRES   REMARKS
MEMPHIS INTL   FAIR      58  51  78 SE3       30.21S
NWS MEMPHIS      N/A     51 N/A N/A MISG        N/A
JACKSON        FAIR      44  43  96 CALM      30.25R
SOMERVILLE     CLEAR     50  48  93 CALM      30.22R
COVINGTON      CLEAR     43  43 100 CALM      30.23R FOG
UNION CITY     CLEAR     43  43 100 CALM      30.23S
BOLIVAR        CLEAR     43  43 100 CALM      30.23S
PARIS          CLEAR     46  46 100 CALM      30.24R
HUNTINGDON     CLEAR     45  45 100 CALM      30.24R
LEXINGTON      CLEAR     41  41 100 CALM      30.25R
SELMER         CLEAR     46  45  93 CALM      30.24R
SAVANNAH       CLEAR     41  41 100 CALM      30.24S
$$

TNZ008-025-027-028-033-062-065-066-201100-
NORTH MIDDLE TENNESSEE

CITY           SKY/WX    TMP DP  RH WIND       PRES   REMARKS
NASHVILLE      FAIR      47  44  90 CALM      30.28R
PORTLAND       PTCLDY    46  46 100 CALM      30.26S
CLARKSVILLE    FAIR      46  44  93 SE3       30.26R FOG
SMYRNA         FAIR      43  43 100 CALM      30.29R FOG
COOKEVILLE     CLEAR     39  37  93 CALM      30.27R FOG
GALLATIN       CLEAR     45  43  93 CALM      30.30R
CROSSVILLE     FAIR      43  41  93 CALM      30.31R
$$

TNZ061-075-076-078-094-096-097-201100-
SOUTH MIDDLE TENNESSEE

CITY           SKY/WX    TMP DP  RH WIND       PRES   REMARKS
FAYETTEVILLE   CLEAR     46  45  93 CALM      30.27R
TULLAHOMA        N/A     39  37  93 CALM      30.28R
WINCHESTER     CLEAR     39  37  93 CALM        N/A
COLUMBIA       MOCLDY    41  41 100 CALM      30.26R
SHELBYVILLE    CLEAR     45  45 100 SE3       30.27R
$$

TNZ017-018-042-046-047-201100-
NORTHEAST TENNESSEE

CITY           SKY/WX    TMP DP  RH WIND       PRES   REMARKS
TRI CITIES     FAIR      41  41 100 CALM      30.31R
ELIZABETHTON   CLEAR     45  41  87 CALM      30.31S
$$

TNZ012-013-036-069-073-074-201100-
CENTRAL EAST TENNESSEE

CITY           SKY/WX    TMP DP  RH WIND       PRES   REMARKS
KNOXVILLE      FAIR      45  45 100 CALM      30.28R
OAK RIDGE      LGT RAIN  47  47 100 CALM      30.31R VSB 1/4
DOWNTOWN KNOXV FOG       46  46 100 CALM      30.31R VSB 0
GATLINBURG     CLEAR     41  41 100 CALM      30.30R
MORRISTOWN     CLEAR     46  45  93 CALM      30.29R
JACKSBORO      CLEAR     41  41 100 CALM      30.34R
$$

TNZ083-085-099-201100-
SOUTHEAST TENNESSEE

CITY           SKY/WX    TMP DP  RH WIND       PRES   REMARKS
CHATTANOOGA    FAIR      46  43  89 CALM      30.30R
DAYTON         FOG       45  45 100 CALM      30.28S VSB 1/4
$$

SKY/WX REPORTED AS FAIR MEANS FEW OR NO CLOUDS BELOW
12 THOUSAND FEET.




USA.gov is the U.S. government's official web portal to all federal, state and local government web resources and services.